841  
ASUS44 KLIX 280213  
RWRLIX  
NEW ORLEANS REGIONAL WEATHER ROUNDUP  
NATIONAL WEATHER SERVICE NEW ORLEANS LA  
900 PM CDT MON MAR 27 2017  
 
NOTE: "FAIR" INDICATES FEW OR NO CLOUDS BELOW 12,000 FEET WITH NO  
SIGNIFICANT WEATHER AND/OR S TO VISIBILITY
.  
SKY/WX - SKY CONDITION AND SIGNIFICANT WEATHER.  
TMP - AIR TEMPERATURE. DP - DEWPOINT TEMPERATURE.  
RH - RELATIVE HUMIDITY. PRES - PRESSURE.  
HI - HEAT INDEX. WCI - WIND CHILL INDEX.  
 
* THESE STATIONS ARE NOT NWS OR FAA STATIONS AND ARE NOT UNDER  
NWS QUALITY CONTROL.  
 
LAZ038-040-048-061>063-065>067-069-280300-  
SOUTHEAST LOUISIANA  
 
CITY SKY/WX TMP DP RH WIND PRES REMARKS
 
N.O. INTL ARPT PTCLDY 73 68 84 S8 29.95S  
N.O. LAKEFRONT PTCLDY 74 69 85 S10 29.96R  
N.O. DOWNTOWN* N/A 76 69 79 S6 29.96R  
RESERVE* N/A 73 69 87 S8 29.95S  
SLIDELL MOCLDY 74 68 81 S9 29.95R  
BATON ROUGE CLOUDY 73 65 75 S9 29.93R  
BOOTHVILLE MOCLDY 73 72 96 S10 29.98R  
BELLE CHASSE MOCLDY 73 69 87 S8 29.96R  
BOGALUSA* NOT AVBL  
GALLIANO* CLOUDY 73 68 84 S7 29.96R  
NEW ROADS* N/A 72 66 81 S9G16 29.93R  
GONZALES* N/A 72 66 82 S6 29.94R  
HAMMOND* CLEAR 73 64 73 S8 29.94R  
HOUMA* PTCLDY 73 69 87 S9 29.95R  
PORT FOURCHON* CLEAR 73 72 94 S12 29.96R  
 

 
 
MSZ070-080>082-280300-  
SOUTHERN MISSISSIPPI  
 
CITY SKY/WX TMP DP RH WIND PRES REMARKS
 
MCCOMB CLEAR 73 61 65 S8 29.92R  
GULFPORT CLOUDY 74 70 87 S9 29.97R  
BILOXI CLOUDY 73 69 87 S14 29.98R  
PASCAGOULA MOCLDY 71 67 87 S7 29.98R  
 

 
 
COASTAL OBSERVATIONS  
LAKE AND NEARSHORE STATIONS  
 
STATION/POSITION TIME TEMP WIND PRES WAVE
 
AIR SEA DIR/SP/G HT/PER  
(UTC) (F) (DEG/KT/KT) (MB) (FT/S)  
PASCAGOULA 0142 73 170/ 12/ 15 1014.9  
WAVELAND YACHT 0142 74 76 200/ 8/ 12 1014.4  
GRAND ISLE 0142 74 76 180/ 7/ 11 1014.4  
SOUTHWEST PASS 0142 170/ 10/ 12 N/A  
NEW CANAL 0142 74 72 200/ 6/ 9 1014.2  
SHELL BEACH 0142 73 76 180/ 10/ 11 1014.8  
 
OFFSHORE STATIONS  
 
STATION/POSITION TIME TEMP WIND PRES WAVE
 
AIR SEA DIR/SP/G HT/PER  
(UTC) (F) (DEG/KT/KT) (MB) (FT/S)  
64 S DAUPHIN ISL 0150 73 74 160/ 12/ 14 1015.8 3/ 6  
 

 
 
 
 
CLICK HERE TO GO TO PREVIOUS BULLETINS.

The Nexlab LA Page
The Nexlab MS Page Main Text Page